Torna al catalogo

FENGYUN 1C DEB

AttivoSSO
NORAD 30500·DEBRIS·🇨🇳 China

Lanciato May 10, 1999 da Taiyuan Satellite Launch Center

Loading…

Prossimi Passaggi (prossime 24 ore)

TLE

AggiornatoSource: Space-Track

Epoca: Sep 14, 2026, 05:40 UTC

1 30500U 99025AHN 26257.23644172  .00002949  00000-0  11869-2 0  9995
2 30500  99.0738   3.6740 0061231  42.1889 347.9077 14.27846658  6061

Traccia FENGYUN 1C DEB in tempo reale con AllMySat

Download on the App Store